Showing default

TOMORROW-S9, 66309

Orbit data source: Space-Track

TOMORROW-S9, 66309 is a payload satellite owned by Tomorrow.io (US) in LEO that was launched on Sun, 02 Nov 2025 UTC via an FALCON 9 launch vehicle from the Air Force Eastern Test Range (AFETR). Payload-class satellites include a variety of spacecraft equipped with specific instruments for various scientific and technological missions. These include communications satellites like Starlink; space stations such as the ISS; scientific satellites like the Hubble; Earth observation satellites from companies like Planet Labs, Umbra, and HawkEye 360; GPS; miniature CubeSats for education and research; and military/defense satellites.

Loading next visibility...
Identifier
66309, 2025-248S
Orbit
LEO
Country
Flag of USUS
Related business
Manufacturer
Blue Canyon
Mission
Operational Commercial Weather
Bus & Motor
CUBESAT 6U, Unknown motor
Mass
12 kg wet, 12 kg dry
Launch date (UTC)
2025-11-02 (8 months ago)
Launch vehicle
FALCON 9
Launch site
Air Force Eastern Test Range (AFETR)
Object type
Payload
Rocket body
Debris
Shape & HBR
Box + 2 Pan, 1.0 m
Radar Cross Section
0.138 m², Medium (>0.1 m² and < 1m²)

Expand to show TLE details & history
Last TLE update: 18 hours ago

TLE from 18 hours ago
0 TOMORROW-S9
1 66309U 25248S   26171.15784945  .00004339  00000-0  20741-3 0  9991
2 66309  45.4046 105.8379 0002610  67.7926 292.3237 15.20539940 34966
Epoch: 2026-06-20T03:47Z
TLE epoch observation values (Epoch: 2026-06-20T03:47:18.192Z)
Latitude
-0.00004°
Longitude
140.63557°
Altitude
503.573 km
Speed
7.615 km/s
True Right ascension
07h 03m 21s
True Declination
0° 00' 00"
Sunlit
Object was in daylight at epoch
Visualization orbit readout
Latitude
Unknown
Longitude
Unknown
Altitude
Unknown
Speed
Unknown
Apparent Right ascension
Unknown
Apparent Declination
Unknown
Sunlit
N/A
Visualization observer readout
Local Sidereal Time
08:33:31
Azimuth
Unknown
Elevation
Unknown
Doppler factor
Unknown
Orbital elements
Apogee altitude
507.544 km
Perigee altitude
503.951 km
Semi-major axis
6,883.884 km
Eccentricity
0.00026
Inclination
45.4046°
RAAN
105.8379°
Arg. of periapsis
67.7926°
True anomaly
292.29603°
Mean anomaly
292.3237°
Eccentric anomaly
292.30987°
Mean motion
3.80008 °/min
Orbital period
94.73 mins
BSTAR
0.00020741
Loading maneuver chart data...
Computing Atmospheric mass density...
Loading historical data...
Loading historical data...
Loading historical data...
Loading historical data...
Loading historical data...
Loading historical data...
Loading historical data...

Documentation

Showing up to 5 results
|